Location: Góry Miechowskie
(50.3599°N, 20.1803°E)
Time: 01:29:51
(UTC+00:00)

Vanguard 2 - Pass Details

Date: 14 September 2024
Orbit: 552 x 2910 km, 32.9° (Epoch: 09 October)

Event Time Altitude Azimuth Distance (km) Brightness Sun altitude
Rises 08:49:31 0° 255° (WSW) 4,975 11.5 37.8°
Reaches altitude 10° 08:56:20 10° 226° (SW) 4,595 11.7 38.4°
Maximum altitude 08:59:40 11° 211° (SSW) 4,740 12.0 38.7°
Drops below altitude 10° 09:03:18 10° 196° (SSW) 5,099 12.4 39.0°
Sets 09:12:40 0° 169° (S) 6,568 13.1 39.7°
